Location: Paris
(48.6709°N, 2.3750°E)
Time: 04:29:33
(UTC+02:00)

ZACube-1 - Pass Details

Date: 07 July 2022
Orbit: 581 x 661 km, 97.6° (Epoch: 17 August)

Event Time Altitude Azimuth Distance (km) Brightness Sun altitude
Rises 04:21:39 0° 32° (NNE) 2,979 ? -11.6°
Reaches altitude 10° 04:25:11 10° 61° (ENE) 2,074 ? -11.3°
Maximum altitude 04:27:09 13° 87° (E) 1,905 ? -11.1°
Drops below altitude 10° 04:29:06 10° 113° (ESE) 2,076 ? -10.9°
Sets 04:32:38 0° 142° (SE) 2,986 ? -10.6°
